Weather History for Lyndonville, VT

Change the Weather History Date:

Saturday, March 2, 2013

  Actual Average (K1V4) Record (K1V4)
Temperature  
Mean Temperature 26 °F 24 °F  
Max Temperature 30 °F 36 °F 54 °F (1990)
Min Temperature 23 °F 13 °F -22 °F (1920)
Degree Days  
Heating Degree Days 38 41  
Month to date heating degree days 82  
Since 1 July heating degree days 5806  
Cooling Degree Days 0 0  
Month to date cooling degree days 0  
Year to date cooling degree days 0  
Moisture  
Dew Point 22 °F    
Average Humidity 79    
Maximum Humidity 86    
Minimum Humidity 68    
Precipitation  
Precipitation 0.00 in 0.07 in 0.83 in (1902)
Month to date precipitation 0.15  
Year to date precipitation 4.83  
Sea Level Pressure  
Sea Level Pressure 29.69 in    
Wind  
Wind Speed 7 mph (NW)    
Max Wind Speed 13 mph    
Max Gust Speed 16 mph    
Visibility 5 miles    
Events Snow    
T = Trace of Precipitation, MM = Missing Value Source: NWS Daily Summary

Daily Weather History Graph

Daily Weather History Graph

Search for Another Location

Airport:

Trip Planner

Search our weather history database for the weather conditions in past years. The results will help you decide how hot, cold, wet, or windy it might be!

Date:

Astronomy

Mar. 02, 2013 Rise Set
Actual Time 6:23 AM EST 5:37 PM EST
Civil Twilight 5:54 AM EST 6:06 PM EST
Nautical Twilight 5:20 AM EST 6:40 PM EST
Astronomical Twilight 4:46 AM EST 7:14 PM EST
Moon 11:29 PM EST (3/2) 8:35 AM EST (3/2)
Length of Visible Light 12h 12m
Length of Day
11h 14m
Waning Gibbous, 74% of the Moon is Illuminated
Mar 2
Waning Gibbous
Mar 4
Last Quarter
Mar 11
New
Mar 19
First Quarter
Mar 27
Full

Hourly Weather History & Observations

Time (EST) Temp. Windchill Dew Point Humidity Pressure Visibility Wind Dir Wind Speed Gust Speed Precip Events Conditions
12:15 AM 28.6 °F 20.7 °F 23.0 °F 80% 29.68 in 4.0 mi NW 8.1 mph - N/A Snow Light Snow
12:35 AM 28.4 °F 22.2 °F 23.4 °F 81% 29.68 in 3.0 mi NW 5.8 mph - N/A Snow Light Snow
12:55 AM 28.4 °F 21.2 °F 23.9 °F 83% 29.68 in 3.0 mi WNW 6.9 mph - N/A Snow Light Snow
1:35 AM 28.8 °F 21.7 °F 23.7 °F 81% 29.68 in 5.0 mi NW 6.9 mph - N/A Snow Light Snow
1:55 AM 29.1 °F 20.6 °F 23.9 °F 81% 29.68 in 4.0 mi NW 9.2 mph - N/A Snow Light Snow
2:15 AM 28.9 °F 22.8 °F 23.9 °F 81% 29.67 in 3.0 mi WNW 5.8 mph - N/A Snow Light Snow
2:35 AM 28.8 °F 23.7 °F 24.3 °F 83% 29.67 in 3.0 mi WNW 4.6 mph - N/A Snow Light Snow
2:55 AM 28.8 °F 23.7 °F 24.3 °F 83% 29.67 in 3.0 mi NW 4.6 mph - N/A Snow Light Snow
3:15 AM 28.8 °F 21.7 °F 24.1 °F 83% 29.67 in 3.0 mi NW 6.9 mph - N/A Snow Light Snow
3:35 AM 28.9 °F 21.9 °F 23.9 °F 81% 29.67 in 3.0 mi NW 6.9 mph - N/A Snow Light Snow
4:15 AM 28.9 °F 21.9 °F 23.9 °F 81% 29.67 in 4.0 mi NW 6.9 mph - N/A Snow Light Snow
4:35 AM 28.8 °F 20.9 °F 23.9 °F 82% 29.68 in 5.0 mi NW 8.1 mph - N/A Snow Light Snow
4:55 AM 28.8 °F 21.7 °F 23.7 °F 81% 29.68 in 5.0 mi NW 6.9 mph - N/A Snow Light Snow
5:15 AM 28.6 °F 22.4 °F 23.9 °F 83% 29.68 in 7.0 mi NW 5.8 mph - N/A Snow Light Snow
5:35 AM 28.8 °F 20.9 °F 23.5 °F 81% 29.69 in 10.0 mi NW 8.1 mph - N/A   Unknown
5:55 AM 28.9 °F 20.4 °F 23.9 °F 81% 29.68 in 7.0 mi NNW 9.2 mph - N/A   Unknown
6:15 AM 28.9 °F 20.4 °F 23.9 °F 81% 29.68 in 7.0 mi NNW 9.2 mph - N/A   Unknown
6:35 AM 28.9 °F 21.9 °F 24.3 °F 83% 29.69 in 10.0 mi NNW 6.9 mph 16.1 mph N/A   Unknown
6:55 AM 28.8 °F 20.9 °F 24.4 °F 84% 29.69 in 5.0 mi NW 8.1 mph - N/A   Haze
7:35 AM 28.8 °F 21.7 °F 24.4 °F 84% 29.69 in 4.0 mi NW 6.9 mph - N/A   Haze
7:55 AM 28.8 °F 20.2 °F 24.6 °F 84% 29.69 in 3.0 mi NW 9.2 mph 16.1 mph N/A   Haze
8:15 AM 28.9 °F 23.9 °F 24.6 °F 84% 29.69 in 4.0 mi NW 4.6 mph - N/A   Haze
8:35 AM 29.1 °F 23.0 °F 24.6 °F 83% 29.69 in 3.0 mi NW 5.8 mph - N/A   Haze
8:55 AM 29.1 °F 23.0 °F 24.6 °F 83% 29.69 in 3.0 mi NW 5.8 mph - N/A   Haze
9:15 AM 28.9 °F 19.8 °F 24.4 °F 83% 29.69 in 5.0 mi NW 10.4 mph - N/A   Haze
9:35 AM 29.3 °F 19.6 °F 24.1 °F 81% 29.69 in 5.0 mi NW 11.5 mph - N/A   Haze
9:55 AM 29.3 °F 19.6 °F 23.9 °F 80% 29.69 in 5.0 mi NNW 11.5 mph 16.1 mph N/A   Haze
10:15 AM 29.3 °F 20.8 °F 23.9 °F 80% 29.69 in 5.0 mi NNW 9.2 mph - N/A   Haze
10:35 AM 29.3 °F 19.6 °F 23.7 °F 80% 29.69 in 10.0 mi NNW 11.5 mph - N/A   Unknown
10:55 AM 29.3 °F 20.2 °F 23.0 °F 77% 29.69 in 10.0 mi NNW 10.4 mph - N/A   Unknown
11:15 AM 30.0 °F 21.7 °F 22.8 °F 75% 29.69 in 7.0 mi NNW 9.2 mph - N/A   Unknown
11:35 AM 30.4 °F 22.9 °F 22.5 °F 72% 29.69 in 10.0 mi NW 8.1 mph - N/A   Unknown
11:55 AM 30.6 °F 21.8 °F 21.4 °F 69% 29.68 in 10.0 mi NW 10.4 mph - N/A   Unknown
12:15 PM 30.4 °F 21.5 °F 21.2 °F 69% 29.68 in 10.0 mi NW 10.4 mph - N/A   Unknown
12:35 PM 30.2 °F 22.6 °F 21.0 °F 69% 29.68 in 10.0 mi NW 8.1 mph - N/A   Unknown
12:55 PM 30.6 °F 23.1 °F 21.4 °F 69% 29.68 in 10.0 mi NNW 8.1 mph - N/A   Unknown
1:35 PM 30.9 °F 21.2 °F 21.4 °F 68% 29.66 in 10.0 mi NNW 12.7 mph - N/A Snow Light Snow
1:55 PM 30.7 °F 21.4 °F 21.2 °F 68% 29.66 in 10.0 mi WNW 11.5 mph - N/A   Unknown
2:15 PM 30.0 °F 21.7 °F 21.4 °F 70% 29.67 in 10.0 mi NNW 9.2 mph - N/A   Unknown
2:35 PM 29.3 °F 19.6 °F 21.4 °F 72% 29.67 in 10.0 mi NNW 11.5 mph - N/A Snow Light Snow
2:55 PM 28.9 °F 20.4 °F 21.2 °F 73% 29.67 in 10.0 mi NW 9.2 mph - N/A   Unknown
3:15 PM 28.6 °F 19.9 °F 21.2 °F 74% 29.68 in 7.0 mi NW 9.2 mph - N/A   Unknown
3:35 PM 28.4 °F 21.2 °F 21.9 °F 77% 29.68 in 2.5 mi NW 6.9 mph - N/A Snow Light Snow
3:55 PM 28.4 °F 18.5 °F 21.7 °F 76% 29.68 in 2.5 mi NW 11.5 mph - N/A Snow Light Snow
4:15 PM 28.4 °F 20.4 °F 21.7 °F 76% 29.68 in 2.0 mi NNW 8.1 mph - N/A Snow Light Snow
4:35 PM 28.4 °F 19.7 °F 22.3 °F 78% 29.68 in 1.8 mi NW 9.2 mph - N/A Snow Light Snow
4:55 PM 28.0 °F 20.8 °F 22.1 °F 78% 29.69 in 2.5 mi NNW 6.9 mph - N/A Snow Light Snow
5:15 PM 27.5 °F 18.0 °F 21.6 °F 78% 29.69 in 1.8 mi NW 10.4 mph - N/A Snow Light Snow
5:35 PM 27.0 °F 19.5 °F 21.6 °F 80% 29.69 in 2.0 mi NW 6.9 mph - N/A Snow Light Snow
5:55 PM 26.6 °F 21.2 °F 21.9 °F 82% 29.70 in 2.5 mi NW 4.6 mph - N/A Snow Light Snow
6:15 PM 26.6 °F 19.1 °F 21.2 °F 80% 29.71 in 3.0 mi NNW 6.9 mph - N/A Snow Light Snow
6:35 PM 26.6 °F 19.1 °F 21.0 °F 79% 29.71 in 3.0 mi NW 6.9 mph - N/A Snow Light Snow
6:55 PM 26.4 °F 18.0 °F 20.7 °F 79% 29.71 in 5.0 mi NW 8.1 mph - N/A   Haze
7:15 PM 26.1 °F 17.6 °F 20.3 °F 79% 29.71 in 4.0 mi NNW 8.1 mph - N/A Snow Light Snow
7:35 PM 26.1 °F 19.4 °F 20.3 °F 79% 29.71 in 5.0 mi NNW 5.8 mph - N/A Snow Light Snow
7:55 PM 25.9 °F 16.6 °F 20.3 °F 79% 29.71 in 7.0 mi NW 9.2 mph - N/A   Unknown
8:15 PM 25.7 °F 18.0 °F 20.3 °F 80% 29.71 in 4.0 mi NNW 6.9 mph - N/A Snow Light Snow
8:35 PM 25.5 °F 21.3 °F 20.1 °F 80% 29.70 in 5.0 mi NNW 3.5 mph - N/A Snow Light Snow
8:55 PM 25.3 °F 19.7 °F 19.9 °F 80% 29.70 in 3.0 mi North 4.6 mph - N/A Snow Light Snow
9:15 PM 25.2 °F - 19.9 °F 81% 29.70 in 5.0 mi Calm Calm - N/A Snow Light Snow
9:35 PM 24.8 °F 20.5 °F 19.8 °F 81% 29.69 in 4.0 mi NW 3.5 mph - N/A Snow Light Snow
9:55 PM 24.8 °F - 20.3 °F 83% 29.69 in 2.5 mi Calm Calm - N/A Snow Light Snow
10:15 PM 24.4 °F 20.1 °F 20.1 °F 84% 29.69 in 2.5 mi NNW 3.5 mph - N/A Snow Light Snow
10:35 PM 23.9 °F - 19.9 °F 85% 29.69 in 1.8 mi Calm Calm - N/A Snow Light Snow
10:55 PM 24.3 °F - 20.3 °F 85% 29.69 in 1.5 mi Calm Calm - N/A Snow Light Snow
11:15 PM 23.9 °F - 20.3 °F 86% 29.69 in 2.0 mi Calm Calm - N/A Snow Light Snow
11:35 PM 23.9 °F - 20.3 °F 86% 29.68 in 2.5 mi Calm Calm - N/A Snow Light Snow
11:55 PM 23.9 °F - 20.3 °F 86% 29.68 in 3.0 mi Calm Calm - N/A Snow Light Snow